Tracking 32523 objects as of 12-Dec-2025
HD Live streaming from Space Station
objects crossing your sky now

COSMOS 1275 DEB

Track COSMOS 1275 DEB now!
10-day predictions


NORAD ID: 13816
Int'l Code: 1981-053HP
Perigee: 823.7 km
Apogee: 1,062.7 km
Inclination: 83.0 °
Period: 103.8 minutes
Semi major axis: 7314 km
RCS: 0.0104 m2 (small)
Launch date: June 4, 1981
Source: Commonwealth of Independent States (former USSR) (CIS)
Launch site: PLESETSK MISSILE AND SPACE COMPLEX (PKMTR)

Note: This is SATELLITE DEBRIS
Your satellite tracking list
Your tracking list is empty




NASA's NSSDC Master Catalog

Two Line Element Set (TLE):
1 13816U 81053HL  25346.10466464  .00004011  00000-0  30256-2 0  9991
2 13816  82.9846 212.8699 0163418 358.2090 153.8046 13.87888557134325
Source of the keplerian elements: AFSPC